Location: Ailly
(50.0793°N, 1.9944°E)
Time: 02:02:23
(UTC+00:00)

MOS 1 Rocket - Pass Details

Date: 15 January 2026
Orbit: 608 x 815 km, 97.4° (Epoch: 6 February)

Event Time Altitude Azimuth Distance (km) Brightness Sun altitude
Rises 06:27:06 0° 13° (NNE) 3,070 6.6 -12.1°
Reaches altitude 10° 06:29:25 10° 14° (NNE) 2,118 5.7 -11.7°
Maximum altitude 06:34:02 86° 103° (ESE) 656 3.2 -11.0°
Drops below altitude 10° 06:38:23 10° 193° (SSW) 1,999 5.8 -10.4°
Sets 06:40:31 0° 194° (SSW) 2,884 6.6 -10.0°
